| time (UTC) | temp F | wind direction | speed knots | gust knots | rain 1hr in | rain 24hr in | rain mn in | humidity % | barometer mb |
| 20260906204602 | 73 | 48 | 0.0 | 0.0 | 0.00 | 0.01 | 0.01 | 91 | 1016.1 |
| 20260906204057 | 73 | 47 | 0.0 | 0.0 | 0.00 | 0.01 | 0.01 | 90 | 1016.1 |
| 20260906203556 | 73 | 105 | 0.9 | 5.2 | 0.00 | 0.01 | 0.01 | 90 | 1016.1 |
| 20260906203051 | 74 | 39 | 0.9 | 6.1 | 0.00 | 0.01 | 0.01 | 90 | 1016.1 |
| 20260906202548 | 74 | 28 | 0.0 | 6.1 | 0.00 | 0.01 | 0.01 | 90 | 1016.1 |
| 20260906202048 | 74 | 55 | 0.0 | 0.0 | 0.00 | 0.01 | 0.01 | 90 | 1015.6 |
| 20260906201547 | 74 | 23 | 0.0 | 0.0 | 0.00 | 0.01 | 0.01 | 90 | 1015.6 |
| 20260906201042 | 74 | 56 | 0.0 | 3.5 | 0.00 | 0.01 | 0.01 | 90 | 1015.6 |
| 20260906200538 | 73 | 45 | 0.0 | 3.5 | 0.00 | 0.01 | 0.01 | 90 | 1015.6 |
| 20260906200034 | 73 | 42 | 0.0 | 0.0 | 0.00 | 0.01 | 0.01 | 90 | 1015.6 |
| 20260906195529 | 73 | 25 | 0.0 | 5.2 | 0.00 | 0.01 | 0.01 | 90 | 1015.6 |
| 20260906195025 | 73 | 34 | 0.9 | 6.1 | 0.00 | 0.01 | 0.01 | 90 | 1015.3 |
| 20260906194521 | 74 | 34 | 0.9 | 6.1 | 0.00 | 0.01 | 0.01 | 90 | 1015.3 |
| 20260906194017 | 74 | 36 | 0.9 | 5.2 | 0.00 | 0.01 | 0.01 | 90 | 1015.3 |
| 20260906193516 | 74 | 41 | 0.0 | 6.1 | 0.00 | 0.01 | 0.01 | 89 | 1015.3 |
| 20260906193011 | 74 | 49 | 0.0 | 6.1 | 0.00 | 0.01 | 0.01 | 89 | 1015.0 |
| 20260906192507 | 74 | 38 | 0.9 | 6.1 | 0.00 | 0.01 | 0.01 | 89 | 1015.0 |
| 20260906192005 | 75 | 22 | 0.9 | 6.1 | 0.00 | 0.01 | 0.01 | 88 | 1015.0 |
| 20260906191501 | 75 | 33 | 0.0 | 5.2 | 0.00 | 0.01 | 0.01 | 88 | 1015.0 |
| 20260906191000 | 75 | 34 | 0.0 | 5.2 | 0.00 | 0.01 | 0.01 | 88 | 1015.0 |
| 20260906190459 | 75 | 20 | 0.0 | 7.0 | 0.00 | 0.01 | 0.01 | 88 | 1015.0 |
| 20260906185954 | 75 | 30 | 0.0 | 7.0 | 0.00 | 0.01 | 0.01 | 87 | 1015.0 |
| 20260906185453 | 75 | 41 | 0.0 | 5.2 | 0.00 | 0.01 | 0.01 | 87 | 1015.0 |
| 20260906184952 | 75 | 11 | 0.0 | 5.2 | 0.00 | 0.01 | 0.01 | 88 | 1015.0 |
| 20260906184448 | 75 | 20 | 0.0 | 6.1 | 0.00 | 0.01 | 0.01 | 88 | 1015.0 |
| 20260906183943 | 75 | 34 | 0.0 | 6.1 | 0.00 | 0.01 | 0.01 | 89 | 1015.0 |
| 20260906183438 | 75 | 29 | 0.0 | 6.1 | 0.00 | 0.01 | 0.01 | 88 | 1015.0 |
| 20260906182934 | 75 | 11 | 0.9 | 6.1 | 0.00 | 0.01 | 0.01 | 88 | 1015.3 |
| 20260906182430 | 75 | 29 | 0.9 | 5.2 | 0.00 | 0.01 | 0.01 | 88 | 1015.3 |
| 20260906181925 | 75 | 27 | 0.9 | 5.2 | 0.00 | 0.01 | 0.01 | 87 | 1015.3 |
| 20260906181420 | 76 | 18 | 0.0 | 2.6 | 0.00 | 0.01 | 0.01 | 87 | 1015.3 |
| 20260906180916 | 76 | 14 | 0.0 | 1.7 | 0.00 | 0.01 | 0.01 | 89 | 1015.3 |
| 20260906180405 | 75 | 15 | 0.0 | 0.0 | 0.00 | 0.01 | 0.01 | 89 | 1015.3 |
| 20260906175903 | 75 | 344 | 0.0 | 0.0 | 0.00 | 0.01 | 0.01 | 90 | 1015.3 |
| 20260906175359 | 75 | 9 | 0.0 | 3.5 | 0.00 | 0.01 | 0.01 | 90 | 1015.6 |
| 20260906174857 | 74 | 44 | 0.0 | 3.5 | 0.00 | 0.01 | 0.01 | 91 | 1015.6 |
| 20260906174356 | 74 | 18 | 0.0 | 0.9 | 0.00 | 0.01 | 0.01 | 91 | 1015.6 |
| 20260906173851 | 74 | 21 | 0.0 | 4.3 | 0.00 | 0.01 | 0.01 | 92 | 1016.1 |
| 20260906173347 | 74 | 21 | 0.0 | 4.3 | 0.00 | 0.01 | 0.01 | 92 | 1016.1 |
| 20260906172846 | 74 | 41 | 0.0 | 1.7 | 0.00 | 0.01 | 0.01 | 92 | 1016.1 |
| 20260906172342 | 73 | 26 | 0.0 | 1.7 | 0.00 | 0.01 | 0.01 | 92 | 1016.1 |
| 20260906171837 | 73 | 334 | 0.0 | 3.5 | 0.00 | 0.01 | 0.01 | 93 | 1016.1 |
| 20260906171332 | 73 | 8 | 0.0 | 3.5 | 0.00 | 0.01 | 0.01 | 93 | 1016.1 |
| 20260906170828 | 73 | 21 | 0.0 | 1.7 | 0.00 | 0.01 | 0.01 | 93 | 1015.6 |
| 20260906170323 | 73 | 333 | 0.0 | 0.0 | 0.00 | 0.01 | 0.01 | 93 | 1015.6 |
| 20260906165820 | 73 | 11 | 0.0 | 0.0 | 0.00 | 0.01 | 0.01 | 93 | 1015.6 |
| 20260906165313 | 73 | 17 | 0.0 | 0.0 | 0.00 | 0.01 | 0.01 | 93 | 1015.6 |
| 20260906164814 | 73 | 1 | 0.0 | 0.0 | 0.00 | 0.01 | 0.01 | 94 | 1015.6 |
| 20260906164308 | 72 | 350 | 0.0 | 0.0 | 0.00 | 0.01 | 0.01 | 94 | 1015.6 |
| 20260906163804 | 72 | 354 | 0.0 | 0.0 | 0.00 | 0.01 | 0.01 | 94 | 1015.6 |
| 20260906163301 | 72 | 23 | 0.0 | 0.0 | 0.00 | 0.01 | 0.01 | 94 | 1015.6 |
| 20260906162757 | 72 | 10 | 0.0 | 0.0 | 0.00 | 0.01 | 0.01 | 94 | 1015.6 |
| 20260906162251 | 71 | 326 | 0.0 | 0.0 | 0.00 | 0.01 | 0.01 | 94 | 1015.6 |
| 20260906161746 | 71 | 330 | 0.0 | 0.0 | 0.00 | 0.01 | 0.01 | 94 | 1015.6 |
| 20260906161245 | 71 | 326 | 0.0 | 0.9 | 0.00 | 0.01 | 0.01 | 94 | 1016.1 |
| 20260906160744 | 71 | 333 | 0.0 | 0.9 | 0.00 | 0.01 | 0.01 | 94 | 1016.1 |
| 20260906160243 | 71 | 19 | 0.0 | 0.9 | 0.00 | 0.01 | 0.01 | 94 | 1016.1 |
| 20260906155741 | 71 | 19 | 0.0 | 0.0 | 0.00 | 0.01 | 0.01 | 94 | 1016.4 |
| 20260906155236 | 71 | 18 | 0.0 | 0.0 | 0.00 | 0.01 | 0.01 | 94 | 1016.4 |
| 20260906154732 | 70 | 19 | 0.0 | 0.0 | 0.00 | 0.01 | 0.01 | 94 | 1016.4 |
| 20260906154226 | 70 | 34 | 0.0 | 0.0 | 0.00 | 0.01 | 0.01 | 93 | 1016.4 |
| 20260906153724 | 70 | 34 | 0.0 | 0.0 | 0.00 | 0.01 | 0.01 | 93 | 1016.4 |
| 20260906153219 | 69 | 34 | 0.0 | 0.0 | 0.00 | 0.01 | 0.01 | 94 | 1016.7 |
| 20260906152714 | 69 | 37 | 0.0 | 0.0 | 0.00 | 0.01 | 0.01 | 94 | 1016.7 |
| 20260906152210 | 69 | 35 | 0.0 | 0.0 | 0.00 | 0.01 | 0.01 | 94 | 1016.7 |
| 20260906151703 | 69 | 37 | 0.0 | 0.0 | 0.00 | 0.01 | 0.01 | 94 | 1016.7 |
| 20260906151200 | 69 | 26 | 0.0 | 0.0 | 0.00 | 0.01 | 0.01 | 94 | 1016.7 |
| 20260906150654 | 69 | 323 | 0.0 | 0.0 | 0.00 | 0.01 | 0.01 | 94 | 1016.7 |
| 20260906150149 | 69 | 323 | 0.0 | 0.0 | 0.00 | 0.01 | 0.01 | 94 | 1016.7 |
| 20260906145648 | 69 | 323 | 0.0 | 0.0 | 0.00 | 0.01 | 0.01 | 94 | 1016.7 |
| 20260906145143 | 69 | 322 | 0.0 | 0.0 | 0.00 | 0.01 | 0.01 | 94 | 1016.7 |
| 20260906144637 | 68 | 322 | 0.0 | 0.0 | 0.00 | 0.01 | 0.01 | 94 | 1016.7 |
| 20260906144132 | 68 | 322 | 0.0 | 0.0 | 0.00 | 0.01 | 0.01 | 94 | 1017.1 |
| 20260906143632 | 68 | 322 | 0.0 | 0.0 | 0.00 | 0.01 | 0.01 | 94 | 1017.1 |
| 20260906143129 | 68 | 321 | 0.0 | 0.0 | 0.00 | 0.01 | 0.01 | 94 | 1016.7 |
| 20260906142628 | 68 | 322 | 0.0 | 0.0 | 0.00 | 0.01 | 0.01 | 93 | 1016.7 |
| 20260906142124 | 68 | 322 | 0.0 | 0.0 | 0.00 | 0.01 | 0.01 | 93 | 1016.7 |
| 20260906141622 | 67 | 322 | 0.0 | 0.0 | 0.00 | 0.01 | 0.01 | 93 | 1016.7 |
| 20260906141118 | 67 | 321 | 0.0 | 0.0 | 0.00 | 0.01 | 0.01 | 92 | 1016.7 |
| 20260906140617 | 66 | 322 | 0.0 | 0.0 | 0.00 | 0.01 | 0.01 | 92 | 1016.7 |
| 20260906140112 | 66 | 321 | 0.0 | 0.0 | 0.00 | 0.01 | 0.01 | 92 | 1016.7 |
| 20260906135609 | 66 | 322 | 0.0 | 0.0 | 0.00 | 0.01 | 0.01 | 92 | 1016.7 |
| 20260906135105 | 65 | 322 | 0.0 | 0.0 | 0.00 | 0.01 | 0.01 | 92 | 1016.7 |
| 20260906134600 | 65 | 321 | 0.0 | 0.0 | 0.00 | 0.01 | 0.01 | 92 | 1017.1 |
| 20260906134101 | 65 | 322 | 0.0 | 0.0 | 0.00 | 0.01 | 0.01 | 92 | 1017.1 |
| 20260906133556 | 65 | 322 | 0.0 | 0.0 | 0.00 | 0.01 | 0.01 | 92 | 1017.1 |
| 20260906133051 | 65 | 321 | 0.0 | 0.0 | 0.00 | 0.01 | 0.01 | 92 | 1016.7 |
| 20260906132546 | 64 | 321 | 0.0 | 0.0 | 0.00 | 0.01 | 0.01 | 92 | 1016.7 |
| 20260906132042 | 64 | 322 | 0.0 | 0.0 | 0.00 | 0.01 | 0.01 | 92 | 1016.7 |
| 20260906131537 | 64 | 322 | 0.0 | 0.0 | 0.00 | 0.01 | 0.01 | 92 | 1016.7 |
| 20260906131032 | 63 | 321 | 0.0 | 0.0 | 0.00 | 0.01 | 0.01 | 92 | 1016.7 |
| 20260906130531 | 63 | 321 | 0.0 | 0.0 | 0.00 | 0.01 | 0.01 | 92 | 1016.7 |
| 20260906130027 | 63 | 322 | 0.0 | 0.0 | 0.00 | 0.01 | 0.01 | 92 | 1016.7 |
| 20260906125524 | 63 | 321 | 0.0 | 0.0 | 0.00 | 0.01 | 0.01 | 92 | 1016.7 |
| 20260906125019 | 62 | 321 | 0.0 | 0.0 | 0.00 | 0.01 | 0.01 | 92 | 1016.7 |
| 20260906124514 | 62 | 321 | 0.0 | 0.0 | 0.00 | 0.01 | 0.01 | 92 | 1016.7 |
| 20260906124009 | 62 | 322 | 0.0 | 0.0 | 0.00 | 0.01 | 0.01 | 93 | 1016.7 |
| 20260906123502 | 62 | 324 | 0.0 | 0.0 | 0.00 | 0.01 | 0.01 | 93 | 1016.4 |
| 20260906122956 | 62 | 320 | 0.0 | 0.0 | 0.00 | 0.01 | 0.01 | 93 | 1016.4 |
| 20260906122451 | 62 | 319 | 0.0 | 0.0 | 0.00 | 0.01 | 0.01 | 93 | 1016.4 |
| 20260906121948 | 61 | 25 | 0.0 | 0.0 | 0.00 | 0.01 | 0.01 | 94 | 1016.4 |
| 20260906121444 | 62 | 79 | 0.0 | 0.0 | 0.00 | 0.01 | 0.01 | 94 | 1016.4 |
| 20260906120940 | 62 | 91 | 0.0 | 0.0 | 0.00 | 0.01 | 0.01 | 93 | 1016.4 |
| 20260906120436 | 63 | 91 | 0.0 | 0.0 | 0.00 | 0.01 | 0.01 | 92 | 1016.1 |
| 20260906115931 | 63 | 91 | 0.0 | 0.0 | 0.00 | 0.01 | 0.01 | 92 | 1016.1 |
| 20260906115427 | 62 | 91 | 0.0 | 0.0 | 0.00 | 0.01 | 0.01 | 93 | 1016.1 |
| 20260906114926 | 62 | 91 | 0.0 | 0.0 | 0.00 | 0.01 | 0.01 | 94 | 1016.1 |
| 20260906114421 | 62 | 91 | 0.0 | 0.0 | 0.00 | 0.01 | 0.01 | 94 | 1016.1 |
| 20260906113917 | 62 | 91 | 0.0 | 0.0 | 0.00 | 0.01 | 0.01 | 94 | 1016.1 |
| 20260906113415 | 62 | 91 | 0.0 | 0.0 | 0.00 | 0.01 | 0.01 | 94 | 1016.1 |
| 20260906112911 | 62 | 91 | 0.0 | 0.0 | 0.00 | 0.01 | 0.01 | 94 | 1016.1 |
| 20260906112407 | 62 | 91 | 0.0 | 0.0 | 0.00 | 0.01 | 0.01 | 94 | 1016.1 |
| 20260906111902 | 63 | 91 | 0.0 | 0.0 | 0.00 | 0.01 | 0.01 | 94 | 1016.1 |
| 20260906111401 | 63 | 91 | 0.0 | 0.0 | 0.00 | 0.01 | 0.01 | 94 | 1016.1 |
| 20260906110856 | 63 | 91 | 0.0 | 0.0 | 0.00 | 0.01 | 0.01 | 94 | 1016.1 |
| 20260906110352 | 63 | 68 | 0.0 | 0.0 | 0.00 | 0.01 | 0.01 | 94 | 1016.1 |
| 20260906105850 | 63 | 68 | 0.0 | 0.0 | 0.00 | 0.01 | 0.01 | 94 | 1016.1 |
| 20260906105347 | 64 | 68 | 0.0 | 0.0 | 0.00 | 0.01 | 0.01 | 94 | 1016.4 |
| 20260906104842 | 64 | 68 | 0.0 | 0.0 | 0.00 | 0.01 | 0.01 | 94 | 1016.4 |
| 20260906104341 | 64 | 68 | 0.0 | 0.0 | 0.00 | 0.01 | 0.01 | 94 | 1016.4 |
| 20260906103839 | 64 | 68 | 0.0 | 0.0 | 0.00 | 0.01 | 0.01 | 94 | 1016.1 |
| 20260906103338 | 64 | 68 | 0.0 | 0.0 | 0.00 | 0.01 | 0.01 | 94 | 1016.1 |
| 20260906102834 | 64 | 68 | 0.0 | 0.0 | 0.00 | 0.01 | 0.01 | 94 | 1016.1 |
| 20260906102333 | 64 | 68 | 0.0 | 0.0 | 0.00 | 0.01 | 0.01 | 94 | 1016.1 |
| 20260906101828 | 65 | 68 | 0.0 | 0.0 | 0.00 | 0.01 | 0.01 | 94 | 1016.1 |
| 20260906101323 | 65 | 68 | 0.0 | 0.0 | 0.00 | 0.01 | 0.01 | 94 | 1016.1 |
| 20260906100819 | 66 | 68 | 0.0 | 0.0 | 0.00 | 0.01 | 0.01 | 94 | 1016.1 |
| 20260906100318 | 66 | 68 | 0.0 | 0.0 | 0.00 | 0.01 | 0.01 | 94 | 1016.1 |
| 20260906095813 | 66 | 61 | 0.0 | 2.6 | 0.00 | 0.01 | 0.01 | 94 | 1016.1 |
| 20260906095308 | 66 | 63 | 0.0 | 3.5 | 0.00 | 0.01 | 0.01 | 94 | 1016.1 |
| 20260906094802 | 66 | 46 | 0.0 | 3.5 | 0.00 | 0.01 | 0.01 | 94 | 1016.1 |
| 20260906094257 | 66 | 62 | 0.0 | 3.5 | 0.00 | 0.01 | 0.01 | 94 | 1016.1 |
| 20260906093753 | 65 | 48 | 0.0 | 3.5 | 0.00 | 0.01 | 0.01 | 94 | 1016.1 |
| 20260906093249 | 65 | 84 | 0.0 | 1.7 | 0.00 | 0.01 | 0.01 | 94 | 1015.6 |
| 20260906092743 | 66 | 90 | 0.0 | 3.5 | 0.00 | 0.01 | 0.01 | 94 | 1015.6 |
| 20260906092238 | 66 | 52 | 0.0 | 3.5 | 0.00 | 0.01 | 0.01 | 94 | 1015.6 |
| 20260906091734 | 65 | 58 | 0.0 | 0.0 | 0.00 | 0.01 | 0.01 | 94 | 1015.6 |
| 20260906091230 | 65 | 72 | 0.0 | 0.0 | 0.00 | 0.01 | 0.01 | 94 | 1015.6 |
| 20260906090726 | 65 | 60 | 0.0 | 0.0 | 0.00 | 0.01 | 0.01 | 94 | 1015.6 |
| 20260906090225 | 66 | 59 | 0.0 | 0.0 | 0.00 | 0.01 | 0.01 | 93 | 1015.6 |
| 20260906085724 | 66 | 70 | 0.0 | 0.0 | 0.00 | 0.01 | 0.01 | 93 | 1015.6 |
| 20260906085223 | 66 | 75 | 0.0 | 0.0 | 0.00 | 0.01 | 0.01 | 93 | 1015.3 |
| 20260906084718 | 66 | 72 | 0.0 | 0.0 | 0.00 | 0.01 | 0.01 | 93 | 1015.3 |
| 20260906084213 | 66 | 79 | 0.0 | 5.2 | 0.00 | 0.01 | 0.01 | 93 | 1015.3 |
| 20260906083708 | 66 | 91 | 0.9 | 6.1 | 0.00 | 0.01 | 0.01 | 93 | 1015.3 |
| 20260906083203 | 66 | 87 | 0.0 | 6.1 | 0.00 | 0.01 | 0.01 | 94 | 1015.3 |
| 20260906082658 | 66 | 89 | 0.0 | 6.1 | 0.00 | 0.01 | 0.01 | 94 | 1015.3 |
| 20260906082153 | 66 | 101 | 0.0 | 3.5 | 0.00 | 0.01 | 0.01 | 94 | 1015.3 |
| 20260906081644 | 66 | 86 | 0.0 | 3.5 | 0.00 | 0.01 | 0.01 | 94 | 1015.3 |
| 20260906081138 | 66 | 114 | 0.0 | 5.2 | 0.00 | 0.01 | 0.01 | 94 | 1015.3 |
| 20260906080635 | 66 | 75 | 0.9 | 10.4 | 0.00 | 0.01 | 0.01 | 94 | 1015.3 |
| 20260906080131 | 66 | 136 | 1.7 | 10.4 | 0.00 | 0.01 | 0.01 | 94 | 1015.3 |
| 20260906075630 | 66 | 127 | 1.7 | 8.7 | 0.00 | 0.01 | 0.01 | 94 | 1015.3 |
| 20260906075125 | 66 | 113 | 0.9 | 8.7 | 0.00 | 0.01 | 0.01 | 94 | 1015.6 |
| 20260906074620 | 66 | 72 | 0.0 | 5.2 | 0.00 | 0.01 | 0.01 | 94 | 1015.6 |
| 20260906074119 | 66 | 53 | 0.0 | 5.2 | 0.00 | 0.01 | 0.01 | 94 | 1016.1 |
| 20260906073614 | 66 | 94 | 0.0 | 2.6 | 0.00 | 0.01 | 0.01 | 94 | 1016.1 |
| 20260906073110 | 66 | 138 | 0.0 | 2.6 | 0.00 | 0.01 | 0.01 | 94 | 1016.1 |
| 20260906072604 | 66 | 42 | 0.0 | 2.6 | 0.00 | 0.01 | 0.01 | 94 | 1016.1 |
| 20260906072101 | 66 | 44 | 0.0 | 2.6 | 0.00 | 0.01 | 0.01 | 94 | 1016.1 |
| 20260906071557 | 66 | 46 | 0.0 | 3.5 | 0.00 | 0.01 | 0.01 | 94 | 1016.1 |
| 20260906071057 | 66 | 53 | 0.0 | 3.5 | 0.00 | 0.01 | 0.01 | 94 | 1016.1 |
| 20260906070554 | 66 | 36 | 0.0 | 0.9 | 0.00 | 0.01 | 0.01 | 94 | 1016.4 |
| 20260906070049 | 66 | 98 | 0.0 | 0.0 | 0.01 | 0.01 | 0.01 | 94 | 1016.4 |
| 20260906065548 | 66 | 86 | 0.0 | 6.1 | 0.01 | 0.01 | 0.01 | 94 | 1016.4 |
| 20260906065044 | 66 | 88 | 0.9 | 7.0 | 0.01 | 0.01 | 0.01 | 94 | 1016.4 |
| 20260906064540 | 66 | 42 | 0.9 | 7.8 | 0.01 | 0.01 | 0.01 | 94 | 1016.4 |
| 20260906064034 | 66 | 62 | 0.9 | 7.8 | 0.01 | 0.01 | 0.01 | 94 | 1016.4 |
| 20260906063530 | 66 | 30 | 0.9 | 7.0 | 0.01 | 0.01 | 0.01 | 94 | 1016.4 |
| 20260906063025 | 66 | 52 | 0.9 | 7.0 | 0.01 | 0.01 | 0.01 | 94 | 1016.4 |
| 20260906062515 | 65 | 41 | 0.0 | 0.0 | 0.01 | 0.01 | 0.01 | 94 | 1016.4 |
| 20260906062009 | 66 | 35 | 0.9 | 4.3 | 0.01 | 0.01 | 0.01 | 94 | 1016.4 |
| 20260906061505 | 65 | 56 | 0.9 | 4.3 | 0.01 | 0.01 | 0.01 | 94 | 1016.4 |
| 20260906060959 | 65 | 39 | 0.0 | 0.0 | 0.01 | 0.01 | 0.01 | 94 | 1016.4 |
| 20260906060456 | 65 | 43 | 0.0 | 0.0 | 0.00 | 0.00 | 0.00 | 94 | 1016.1 |
| 20260906055953 | 65 | 37 | 0.0 | 0.0 | 0.00 | 0.00 | 0.00 | 94 | 1016.1 |
| 20260906055448 | 65 | 39 | 0.0 | 0.0 | 0.00 | 0.00 | 0.00 | 94 | 1016.1 |
| 20260906054943 | 65 | 37 | 0.0 | 0.0 | 0.00 | 0.00 | 0.00 | 94 | 1016.4 |
| 20260906054438 | 65 | 37 | 0.0 | 0.0 | 0.00 | 0.00 | 0.00 | 94 | 1016.1 |
| 20260906053933 | 65 | 37 | 0.0 | 0.0 | 0.00 | 0.00 | 0.00 | 94 | 1016.1 |
| 20260906053429 | 65 | 37 | 0.0 | 0.0 | 0.00 | 0.00 | 0.00 | 94 | 1016.1 |
| 20260906052925 | 65 | 35 | 0.0 | 0.0 | 0.00 | 0.00 | 0.00 | 94 | 1016.1 |
| 20260906052421 | 65 | 37 | 0.0 | 0.0 | 0.00 | 0.00 | 0.00 | 94 | 1016.1 |
| 20260906051918 | 66 | 39 | 0.0 | 1.7 | 0.00 | 0.00 | 0.00 | 94 | 1016.1 |
| 20260906051412 | 66 | 47 | 0.0 | 2.6 | 0.00 | 0.00 | 0.00 | 94 | 1016.1 |
| 20260906050908 | 66 | 41 | 0.0 | 2.6 | 0.00 | 0.00 | 0.00 | 94 | 1016.1 |
| 20260906050403 | 66 | 45 | 0.0 | 0.0 | 0.00 | 0.00 | 0.00 | 94 | 1016.4 |
| 20260906045901 | 66 | 57 | 0.0 | 0.0 | 0.00 | 0.20 | 0.20 | 94 | 1016.1 |
| 20260906045401 | 66 | 52 | 0.0 | 0.0 | 0.00 | 0.20 | 0.20 | 94 | 1016.1 |
| 20260906044857 | 66 | 47 | 0.0 | 0.0 | 0.00 | 0.20 | 0.20 | 94 | 1016.1 |
| 20260906044352 | 66 | 48 | 0.0 | 0.0 | 0.00 | 0.20 | 0.20 | 94 | 1016.1 |
| 20260906043847 | 66 | 39 | 0.0 | 1.7 | 0.00 | 0.20 | 0.20 | 94 | 1016.1 |
| 20260906043344 | 66 | 39 | 0.0 | 1.7 | 0.00 | 0.20 | 0.20 | 94 | 1016.1 |
| 20260906042844 | 66 | 39 | 0.0 | 0.0 | 0.00 | 0.20 | 0.20 | 94 | 1016.1 |
| 20260906042342 | 66 | 37 | 0.0 | 0.0 | 0.00 | 0.20 | 0.20 | 94 | 1016.4 |
| 20260906041838 | 66 | 32 | 0.0 | 0.0 | 0.00 | 0.20 | 0.20 | 94 | 1016.4 |
| 20260906041334 | 66 | 32 | 0.0 | 0.0 | 0.00 | 0.20 | 0.20 | 94 | 1016.4 |
| 20260906040834 | 67 | 27 | 0.0 | 0.0 | 0.00 | 0.20 | 0.20 | 94 | 1016.4 |
| 20260906040329 | 66 | 27 | 0.0 | 0.0 | 0.00 | 0.20 | 0.20 | 94 | 1016.4 |
| 20260906035824 | 66 | 41 | 0.0 | 0.0 | 0.00 | 0.20 | 0.20 | 94 | 1016.7 |
| 20260906035325 | 66 | 39 | 0.0 | 0.0 | 0.00 | 0.20 | 0.20 | 94 | 1016.7 |
| 20260906034820 | 66 | 39 | 0.0 | 0.0 | 0.00 | 0.20 | 0.20 | 94 | 1016.7 |
| 20260906034315 | 66 | 51 | 0.0 | 0.0 | 0.00 | 0.20 | 0.20 | 94 | 1016.7 |
| 20260906033811 | 66 | 51 | 0.0 | 0.0 | 0.00 | 0.20 | 0.20 | 94 | 1016.7 |
| 20260906033310 | 66 | 51 | 0.0 | 0.0 | 0.00 | 0.20 | 0.20 | 94 | 1016.7 |
| 20260906032807 | 66 | 51 | 0.0 | 0.0 | 0.00 | 0.20 | 0.20 | 94 | 1016.7 |
| 20260906032305 | 66 | 51 | 0.0 | 0.0 | 0.00 | 0.20 | 0.20 | 94 | 1016.7 |
| 20260906031757 | 66 | 51 | 0.0 | 0.0 | 0.00 | 0.20 | 0.20 | 94 | 1016.7 |
| 20260906031253 | 66 | 52 | 0.0 | 0.0 | 0.00 | 0.20 | 0.20 | 94 | 1016.7 |
| 20260906030752 | 66 | 52 | 0.0 | 0.0 | 0.00 | 0.20 | 0.20 | 94 | 1016.7 |
| 20260906030248 | 66 | 52 | 0.0 | 0.0 | 0.00 | 0.20 | 0.20 | 94 | 1016.7 |
| 20260906025747 | 67 | 326 | 0.0 | 0.0 | 0.00 | 0.20 | 0.20 | 94 | 1016.7 |
| 20260906025242 | 67 | 326 | 0.0 | 0.0 | 0.00 | 0.20 | 0.20 | 93 | 1016.7 |
| 20260906024740 | 68 | 326 | 0.0 | 0.0 | 0.00 | 0.20 | 0.20 | 93 | 1016.7 |
| 20260906024239 | 68 | 326 | 0.0 | 0.0 | 0.00 | 0.20 | 0.20 | 93 | 1016.7 |
| 20260906023735 | 68 | 326 | 0.0 | 0.0 | 0.00 | 0.20 | 0.20 | 93 | 1016.7 |
| 20260906023230 | 68 | 326 | 0.0 | 0.0 | 0.00 | 0.20 | 0.20 | 93 | 1016.7 |
| 20260906022726 | 68 | 325 | 0.0 | 0.0 | 0.00 | 0.20 | 0.20 | 93 | 1016.4 |
| 20260906022221 | 69 | 272 | 0.0 | 0.0 | 0.00 | 0.20 | 0.20 | 92 | 1016.4 |
| 20260906021717 | 69 | 271 | 0.0 | 0.0 | 0.00 | 0.20 | 0.20 | 92 | 1016.1 |
| 20260906021216 | 69 | 34 | 0.0 | 0.0 | 0.00 | 0.20 | 0.20 | 92 | 1016.1 |
| 20260906020711 | 70 | 33 | 0.0 | 0.0 | 0.00 | 0.20 | 0.20 | 91 | 1015.6 |
| 20260906020206 | 70 | 34 | 0.0 | 4.3 | 0.00 | 0.20 | 0.20 | 91 | 1015.6 |
| 20260906015705 | 70 | 30 | 0.0 | 4.3 | 0.00 | 0.20 | 0.20 | 92 | 1015.3 |
| 20260906015159 | 70 | 156 | 0.0 | 0.0 | 0.00 | 0.20 | 0.20 | 91 | 1015.6 |
| 20260906014658 | 70 | 51 | 0.0 | 0.0 | 0.00 | 0.20 | 0.20 | 91 | 1015.6 |
| 20260906014155 | 70 | 89 | 0.0 | 0.0 | 0.00 | 0.20 | 0.20 | 91 | 1016.1 |
| 20260906013650 | 70 | 89 | 0.0 | 0.0 | 0.00 | 0.20 | 0.20 | 90 | 1015.6 |
| 20260906013140 | 70 | 89 | 0.0 | 0.0 | 0.00 | 0.20 | 0.20 | 90 | 1015.3 |
| 20260906012639 | 70 | 89 | 0.0 | 0.0 | 0.00 | 0.20 | 0.20 | 90 | 1015.6 |
| 20260906012134 | 71 | 89 | 0.0 | 5.2 | 0.00 | 0.20 | 0.20 | 89 | 1015.6 |
| 20260906011630 | 71 | 42 | 0.0 | 5.2 | 0.00 | 0.20 | 0.20 | 89 | 1015.6 |
| 20260906011124 | 70 | 33 | 0.9 | 5.2 | 0.00 | 0.20 | 0.20 | 90 | 1015.6 |
| 20260906010620 | 70 | 31 | 0.9 | 5.2 | 0.00 | 0.20 | 0.20 | 90 | 1015.6 |
| 20260906010116 | 70 | 41 | 0.9 | 5.2 | 0.00 | 0.20 | 0.20 | 90 | 1015.6 |
| 20260906005615 | 70 | 37 | 0.9 | 5.2 | 0.00 | 0.20 | 0.20 | 90 | 1015.6 |
| 20260906005114 | 70 | 51 | 1.7 | 4.3 | 0.00 | 0.20 | 0.20 | 90 | 1015.6 |
| 20260906004608 | 70 | 41 | 2.6 | 7.0 | 0.00 | 0.20 | 0.20 | 90 | 1015.6 |
| 20260906004103 | 70 | 41 | 1.7 | 7.0 | 0.00 | 0.20 | 0.20 | 90 | 1015.3 |
| 20260906003559 | 71 | 58 | 0.9 | 6.1 | 0.00 | 0.20 | 0.20 | 89 | 1015.3 |
| 20260906003054 | 71 | 32 | 0.0 | 1.7 | 0.00 | 0.20 | 0.20 | 89 | 1015.6 |
| 20260906002549 | 71 | 43 | 0.0 | 1.7 | 0.00 | 0.20 | 0.20 | 88 | 1015.3 |
| 20260906002043 | 71 | 328 | 0.0 | 0.0 | 0.00 | 0.20 | 0.20 | 87 | 1015.3 |
| 20260906001539 | 72 | 328 | 0.0 | 0.0 | 0.00 | 0.20 | 0.20 | 87 | 1015.3 |
| 20260906001039 | 72 | 328 | 0.0 | 0.0 | 0.00 | 0.20 | 0.20 | 86 | 1015.3 |
| 20260906000535 | 73 | 328 | 0.0 | 0.0 | 0.00 | 0.20 | 0.20 | 86 | 1015.3 |
| 20260906000030 | 73 | 328 | 0.0 | 0.0 | 0.00 | 0.20 | 0.20 | 85 | 1015.3 |
| 20260905235524 | 73 | 328 | 0.0 | 0.0 | 0.00 | 0.20 | 0.20 | 84 | 1015.3 |
| 20260905235019 | 74 | 328 | 0.0 | 0.0 | 0.00 | 0.20 | 0.20 | 84 | 1015.0 |
| 20260905234515 | 74 | 327 | 0.0 | 0.0 | 0.00 | 0.20 | 0.20 | 84 | 1015.0 |
| 20260905234014 | 74 | 328 | 0.0 | 0.0 | 0.00 | 0.20 | 0.20 | 84 | 1015.0 |
| 20260905233510 | 74 | 324 | 0.0 | 0.0 | 0.00 | 0.20 | 0.20 | 83 | 1015.0 |
| 20260905233009 | 74 | 332 | 0.0 | 0.0 | 0.00 | 0.20 | 0.20 | 83 | 1015.0 |
| 20260905232505 | 74 | 314 | 0.0 | 0.0 | 0.00 | 0.20 | 0.20 | 83 | 1015.0 |
| 20260905232000 | 74 | 314 | 0.0 | 0.0 | 0.00 | 0.20 | 0.20 | 82 | 1014.6 |
| 20260905231455 | 74 | 322 | 0.0 | 0.0 | 0.00 | 0.20 | 0.20 | 81 | 1015.0 |
| 20260905230952 | 75 | 335 | 0.0 | 2.6 | 0.00 | 0.20 | 0.20 | 80 | 1014.6 |
| 20260905230450 | 75 | 338 | 0.0 | 2.6 | 0.00 | 0.20 | 0.20 | 79 | 1014.6 |
| 20260905225943 | 76 | 322 | 0.0 | 0.0 | 0.00 | 0.20 | 0.20 | 79 | 1014.6 |
| 20260905225438 | 76 | 351 | 0.0 | 2.6 | 0.00 | 0.20 | 0.20 | 78 | 1014.3 |
| 20260905224933 | 76 | 304 | 0.0 | 2.6 | 0.00 | 0.20 | 0.20 | 78 | 1014.3 |
| 20260905224429 | 76 | 342 | 0.0 | 0.0 | 0.00 | 0.20 | 0.20 | 79 | 1014.3 |
| 20260905223928 | 76 | 343 | 0.0 | 2.6 | 0.00 | 0.20 | 0.20 | 78 | 1013.9 |
| 20260905223426 | 77 | 341 | 0.0 | 2.6 | 0.00 | 0.20 | 0.20 | 78 | 1014.3 |
| 20260905222926 | 77 | 1 | 0.0 | 0.9 | 0.00 | 0.20 | 0.20 | 78 | 1014.3 |
| 20260905222426 | 77 | 349 | 0.0 | 0.9 | 0.00 | 0.20 | 0.20 | 77 | 1014.3 |
| 20260905221922 | 77 | 307 | 0.0 | 0.0 | 0.00 | 0.20 | 0.20 | 77 | 1014.3 |
| 20260905221418 | 77 | 301 | 0.0 | 0.0 | 0.00 | 0.20 | 0.20 | 77 | 1014.3 |
| 20260905220915 | 77 | 312 | 0.0 | 0.0 | 0.00 | 0.20 | 0.20 | 76 | 1014.3 |
| 20260905220410 | 78 | 337 | 0.0 | 0.0 | 0.00 | 0.20 | 0.20 | 75 | 1014.3 |
| 20260905215909 | 78 | 329 | 0.0 | 0.0 | 0.00 | 0.20 | 0.20 | 78 | 1014.3 |
| 20260905215405 | 77 | 319 | 0.0 | 0.0 | 0.00 | 0.20 | 0.20 | 78 | 1013.9 |
| 20260905214901 | 77 | 4 | 0.0 | 1.7 | 0.00 | 0.20 | 0.20 | 80 | 1013.9 |
| 20260905214356 | 76 | 27 | 0.0 | 1.7 | 0.00 | 0.20 | 0.20 | 82 | 1013.9 |
| 20260905213850 | 75 | 330 | 0.0 | 0.9 | 0.00 | 0.20 | 0.20 | 80 | 1014.3 |
| 20260905213347 | 76 | 344 | 0.0 | 0.0 | 0.00 | 0.20 | 0.20 | 79 | 1014.3 |
| 20260905212842 | 76 | 340 | 0.0 | 0.0 | 0.00 | 0.20 | 0.20 | 78 | 1014.3 |
| 20260905212341 | 76 | 340 | 0.0 | 0.0 | 0.00 | 0.20 | 0.20 | 77 | 1014.3 |
| 20260905211836 | 77 | 341 | 0.0 | 0.0 | 0.00 | 0.20 | 0.20 | 77 | 1014.6 |
| 20260905211331 | 78 | 278 | 0.0 | 0.0 | 0.00 | 0.20 | 0.20 | 76 | 1014.6 |
| 20260905210827 | 77 | 328 | 0.0 | 4.3 | 0.00 | 0.20 | 0.20 | 76 | 1014.3 |
| 20260905210322 | 77 | 318 | 0.9 | 8.7 | 0.00 | 0.20 | 0.20 | 76 | 1014.3 |
| 20260905205821 | 77 | 210 | 0.9 | 8.7 | 0.00 | 0.20 | 0.20 | 77 | 1014.6 |
| 20260905205315 | 76 | 85 | 0.9 | 8.7 | 0.00 | 0.20 | 0.20 | 78 | 1013.2 |
| 20260905204815 | 76 | 70 | 0.9 | 8.7 | 0.00 | 0.20 | 0.20 | 79 | 1012.8 |